Location: Unspecified
(0.0000°N, 0.0000°E)
Time: 01:22:41
(UTC+00:00)

Envisat - Pass Details

Date: 15 July 2019
Orbit: 764 x 766 km, 98.1° (Epoch: 18 November)

Event Time Altitude Azimuth Distance (km) Brightness Sun altitude
Rises 18:56:47 0° 174° (S) 3,231 6.0 -11.8°
Reaches altitude 10° 18:59:07 10° 177° (S) 2,303 5.2 -12.3°
Maximum altitude 19:04:08 65° 258° (WSW) 839 3.4 -13.5°
Drops below altitude 10° 19:09:09 10° 339° (NNW) 2,292 6.1 -14.7°
Sets 19:11:27 0° 343° (NNW) 3,215 6.8 -15.2°
